Home > Weather > Key West > Past weeks

Flag for U.S.A. Weather for the Past 2 Weeks in Key West, Florida, U.S.A.

Now
69 °F

Sunny.


Feels Like: 69 °F
Forecast: 63 / 69 °F
Wind: 13 mph from North

Location: Key West International Airport

Current Time: Feb 13, 2016 at 6:59:53 PM

Latest Report: Feb 13, 2016 at 5:53 PM


Visibility: 10 mi

Pressure: 30.19 "Hg

Humidity: 79%

Dew point: 62 °F

Location of Key WestLocation

Historic Weather in Key West — Graph

°F

Key West Temperature Yesterday

Maximum temperature yesterday: 72 °F (at 1:53 PM)
Minimum temperature yesterday: 58 °F (at 12:53 AM)
Average temperature yesterday: 65 °F

High & Low Weather Summary for the Past Weeks

 TemperatureHumidityPressure
High81 °F (Feb 4, 12:53 PM)100% (Feb 1, 1:53 AM)30.34 "Hg (Feb 1, 1:53 AM)
Low57 °F (Feb 11, 5:53 AM)46% (Feb 11, 5:53 PM)29.97 "Hg (Feb 1, 3:53 PM)
Average68 °F78%30.11 "Hg
* Reported Jan 29 4:53 PM — Feb 13 4:53 PM, Key West, Weather by CustomWeather, © 2016

Note: Actual official high and low records may vary slightly from our data, if they occured in-between our weather recording intervals... More about our weather records

Advertising

Key West Weather History for the Previous 24 Hours

 ConditionsComfort  
Time TempWeatherWind HumidityBarometerVisibility
4:53 PM
Sat, Feb 13
70 °FSunny.13 mph76%30.19 "Hg10 mi
3:53 PM72 °FSunny.13 mph71%30.18 "Hg10 mi
2:53 PM72 °FSunny.14 mph71%30.20 "Hg10 mi
1:53 PM71 °FSunny.14 mph71%30.22 "Hg10 mi
12:53 PM72 °FSunny.10 mph68%30.25 "Hg10 mi
11:53 AM71 °FSunny.12 mph71%30.27 "Hg10 mi
10:53 AM70 °FSunny.14 mph71%30.27 "Hg10 mi
9:53 AM69 °FSunny.12 mph73%30.27 "Hg10 mi
8:53 AM67 °FSunny.13 mph71%30.26 "Hg10 mi
7:53 AM65 °FSunny.7 mph76%30.24 "Hg10 mi
6:53 AM62 °FClear.8 mph83%30.22 "Hg10 mi
5:53 AM63 °FClear.8 mph81%30.20 "Hg10 mi
4:53 AM63 °FClear.8 mph78%30.19 "Hg10 mi
3:53 AM63 °FClear.7 mph81%30.19 "Hg10 mi
2:53 AM63 °FClear.8 mph84%30.19 "Hg10 mi
1:53 AM63 °FClear.8 mph81%30.21 "Hg10 mi
12:53 AM64 °FClear.10 mph78%30.22 "Hg10 mi
11:53 PM
Fri, Feb 12
64 °FClear.9 mph81%30.22 "Hg10 mi
10:53 PM64 °FClear.7 mph75%30.24 "Hg10 mi
9:53 PM65 °FClear.6 mph85%30.24 "Hg10 mi
8:53 PM66 °FClear.9 mph84%30.24 "Hg10 mi
7:53 PM66 °FClear.9 mph87%30.22 "Hg10 mi
6:53 PM66 °FClear.6 mph84%30.21 "Hg10 mi
Weather by CustomWeather, © 2016

See weather overviewHow to use our weather pages